Other Public Products
Issued by NWS Grand Forks, ND

Home | Current Version | Previous Version | Graphics & Text | Print | Product List | Glossary On
Versions: 1 2 3 4 5 6 7 8 9 10 11 12 13 14 15 16 17 18 19 20 21 22 23 24 25 26 27 28 29 30 31 32 33 34 35 36 37 38 39 40 41 42 43 44 45 46 47 48 49 50
000
FPUS83 KFGF 301931
OPUFGF
PRAIRIE TO PINES WEATHER ROUNDUP
NATIONAL WEATHER SERVICE EASTERN NORTH DAKOTA/GRAND FORKS ND
200 PM CDT SAT AUG 30 2014

 **SATELLITE DATA USED TO AUGMENT SKY COVER AT AUTOMATED STATIONS**
 *****  WEATHER ACROSS EASTERN NORTH DAKOTA  *****

CITY           SKY/WX    TMP DP  RH WIND       PRES   REMARKS
GRAND FORKS    MOSUNNY   71  51  49 NE5       29.88F
GRAND FORKS AF SUNNY     69  51  52 VRB1      29.90F
GRAND CITY NWS   N/A     72 N/A N/A SE7         N/A
BUXTON           N/A     75  55  50 CALM        N/A
DEVILS LAKE    SUNNY     66  52  59 SE10      29.87F
FARGO          MOSUNNY   70  56  61 NE6       29.88F
WAHPETON ARPT  CLOUDY    63  55  77 CALM      29.90S
$$

 *****  WEATHER ACROSS CENTRAL AND WESTERN NORTH DAKOTA  *****

CITY           SKY/WX    TMP DP  RH WIND       PRES   REMARKS
JAMESTOWN      SUNNY     69  54  58 E6        29.88F
BISMARCK       SUNNY     71  54  54 S9G18     29.86F
MINOT          SUNNY     71  48  43 SE14G24   29.82F
MINOT AFB      SUNNY     70  50  48 SE16G22   29.81F
GARRISON         N/A     70  53  54 S14G21    29.82F
WILLISTON      CLOUDY    73  57  57 SE13      29.75F
DICKINSON      SUNNY     72  57  59 SE20      29.78F
HETTINGER      SUNNY     74  57  55 SE16G28   29.80F
$$

 *****  OTHER OBSERVATIONS NORTHEAST NORTH DAKOTA  *****

CITY           SKY/WX    TMP DP  RH WIND       PRES   REMARKS
WALHALLA       FAIR      66  48  52 SE6       29.89F
LANGDON        FAIR      72  41  33 SE10      29.89F
CAVALIER       FAIR      68  48  49 S3        29.89F
GRAFTON        FAIR      68  46  45 N5        29.88F
CANDO          FAIR      66  50  55 S9G16     29.88F
FORT TOTTEN      N/A     70  51  51 S7        29.95
ROLLA          FAIR      64  45  48 S10       29.88F
RUGBY          FAIR      68  46  45 S9G18     29.86F
 ***** THE ABOVE OBSERVATIONS ARE NON NWS ARE NOT QUALITY
        CONTROLLED AND MAY MIS-REPORT RAIN FOR SNOW...
$$

 *****  OTHER OBSERVATIONS SOUTHEAST NORTH DAKOTA *****

CITY           SKY/WX    TMP DP  RH WIND       PRES   REMARKS
COOPERSTOWN    NOT AVBL
VALLEY CITY    FAIR      70  54  56 E9        29.89F
OAKES            N/A     72  57  60 SE3       29.89F
GWINNER        PTCLDY    70  57  64 E6        29.90F
SHEYENNE NWR     N/A     69  58  69 E7        29.95S
BUFFALO          N/A     71  47  42 CALM        N/A
WYNDMERE       NOT AVBL
 ***** THE ABOVE OBSERVATIONS ARE NON NWS ARE NOT QUALITY
       CONTROLLED AND MAY MIS-REPORT RAIN FOR SNOW...
$$

  *****  WEATHER ACROSS NORTHERN MINNESOTA  *****

CITY           SKY/WX    TMP DP  RH WIND       PRES   REMARKS
FLAG ISLAND    MOSUNNY   64  52  63 CALM      29.91F
WARROAD        SUNNY     66  55  68 NE8       29.92F
ROSEAU         SUNNY     70  54  56 CALM      29.90F
HALLOCK        SUNNY     70  52  52 NE5       29.88F
THF RVR FALLS  SUNNY     68  50  52 E3        29.90S
HALSTAD          N/A     73  52  47 E3          N/A
FOSSTON        SUNNY     70  57  64 CALM      29.90S
BAUDETTE       SUNNY     68  51  54 E5        29.90F
WASKISH        MOSUNNY   66  57  72 CALM      29.90S
CROOKSTON      SUNNY     70  54  56 SE3       29.89F
$$
  *****  WEATHER ACROSS CENTRAL AND WEST MINNESOTA  *****

CITY           SKY/WX    TMP DP  RH WIND       PRES   REMARKS
BEMIDJI        CLOUDY    64  56  77 CALM      29.90S
PARK RAPIDS    CLOUDY    63  57  81 NE3       29.90S
WADENA         CLOUDY    64  59  82 E3        29.89F
DETROIT LAKES  CLOUDY    63  57  82 NE3       29.91R
MOORHEAD       CLOUDY    66  63  88 CALM      29.89F
FERGUS FALLS   CLOUDY    64  61  88 CALM      29.89S
ELBOW LAKE     CLOUDY    63  59  87 CALM      29.89S
MORRIS MN      SUNNY     66  61  82 W7        29.89S
STAPLES        CLOUDY    63  59  88 CALM      29.90S
WHEATON        CLOUDY    61  55  82 CALM      29.92S
$$
  *****  WEATHER ELSEWHERE ACROSS MINNESOTA  *****

CITY           SKY/WX    TMP DP  RH WIND       PRES   REMARKS
DULUTH         CLOUDY    64  60  87 SE13      29.88S
INTRNTL FALLS  MOSUNNY   70  53  54 N7        29.90S
ELY            CLOUDY    61  55  82 CALM      29.91S
CLOQUET        CLOUDY    64  61  88 SE6       29.88S
BRAINERD       CLOUDY    64  61  90 N3        29.89S
HIBBING        CLOUDY    65  57  75 NE6       29.90S
ALEXANDRIA     CLOUDY    67  61  81 NW5       29.90S
SAINT CLOUD    PTSUNNY   73  65  75 N3        29.87S
MINNEAPOLIS    PTSUNNY   75  62  64 N7        29.86S
$$

  *****  WEATHER ACROSS SOUTH DAKOTA  *****

CITY           SKY/WX    TMP DP  RH WIND       PRES   REMARKS
SIOUX FALLS    CLOUDY    68  59  73 W6        29.93S
BROOKINGS      NOT AVBL
WATERTOWN      CLOUDY    65  58  78 W5        29.91F
HURON          CLOUDY    68  58  70 SW6       29.91F
SISSETON         N/A     67  58  72 CALM      29.89S
ABERDEEN       PTSUNNY   69  57  65 CALM      29.89F
MITCHELL       CLOUDY    65  58  78 W6        29.94S
PIERRE         SUNNY     74  57  55 E14       29.84F
MOBRIDGE       SUNNY     70  57  63 S14       29.84F
RAPID CITY     SUNNY     80  58  46 SE18      29.80F
$$

  *****  SOME WEATHER IN NEARBY STATES *****

CITY           SKY/WX    TMP DP  RH WIND       PRES   REMARKS
GLASGOW MT     LGT RAIN  63  60  90 CALM      29.72F
GREAT FALLS MT CLOUDY    73  40  30 W18G24    29.79F
CHEYENNE WY    SUNNY     80  42  25 SW14G23   30.03F
SCOTTSBLUFF NE SUNNY     87  54  32 E8        29.87F
OMAHA NE       MOSUNNY   76  65  68 SE3       29.93F
DES MOINES IA  MOSUNNY   82  69  64 NW8       29.90S
DAVENPORT IA   PTSUNNY   78  67  68 NW13      29.89S
CHICAGO IL     PTSUNNY   81  64  56 SW17G29   29.85S
EAU CLAIRE WI  CLOUDY    70  65  84 N7        29.84R
LA CROSSE WI   LGT RAIN  75  66  73 NW9       29.83R
$$

  *****  SOME NATIONAL WEATHER *****

CITY           SKY/WX    TMP DP  RH WIND       PRES   REMARKS
LA GUARDIA NY  PTSUNNY   76  60  57 S12       30.21F
RALEIGH NC     MOSUNNY   88  70  55 SE5       30.17F HX  93
ATLANTA GA     TSTM      79  72  78 NW9G31    30.11F
NEW ORLEANS LA LGT RAIN  75  72  90 E6        30.07R
OKLAHOMA CITY  MOSUNNY   94  58  29 N7G17     29.94F HX  93
ALBUQUERQUE NM MOSUNNY   83  43  24 SW7       30.15F
SALT LAKE CITY CLOUDY    77  38  24 S15       29.97S
LOS ANGELES CA MOSUNNY   76  64  66 W8        29.84F
BOISE ID       SUNNY     74  41  30 W5        29.91F
SEATTLE WA     CLOUDY    63  57  82 SE6       29.91S
$$

*** WEATHER ACROSS MANITOBA...SASKATCHEWAN AND ONTARIO ***
                ***ONTARIO***

CITY           SKY/WX    TMP DP  RH WIND       PRES   REMARKS
GERALDTON      CLOUDY    64  54  68 NE6       29.88F
THUNDER BAY    CLOUDY    68  57  68 E12       29.87R
SIOUX LOOKOUT  PTSUNNY   63  52  67 VRB3      29.93S
TORONTO        PTSUNNY   81  66  61 SE12G18   29.95F
BIG TROUT LK   SUNNY     59  39  47 W8        29.94S
PICKLE LAKE    MOSUNNY   63  45  51 VRB3      29.95S
DRYDEN         PTSUNNY   64  52  63 E6        29.92F
KENORA         PTSUNNY   64  54  68 VRB6      29.93F
$$
                *** MANITOBA***

CITY           SKY/WX    TMP DP  RH WIND       PRES   REMARKS
BRANDON        PTSUNNY   66  48  52 SE14G20   29.85F
DAUPHIN        SUNNY     70  50  49 S10       29.82F
ISLAND LAKE    MOSUNNY   61  43  51 CALM      29.94F
PILOT MOUND      N/A     66  45  45 SE9         N/A
THE PAS        CLOUDY    66  48  52 SE20G28   29.73F
THOMPSON       PTSUNNY   63  45  51 SW7       29.84F
WINNIPEG       MOSUNNY   68  48  49 S10       29.90F
LYNN LAKE      MOSUNNY   64  43  45 MISG      29.76F
CHURCHILL      MOSUNNY   55  39  54 NW10      29.83R
GILLAM         MOSUNNY   61  41  48 NW8       29.87F
$$
                ***SASKATCHEWAN***

CITY           SKY/WX    TMP DP  RH WIND       PRES   REMARKS
ESTEVAN        CLOUDY    72  55  56 S16       29.76F
KINDERSLEY     MOSUNNY   66  48  52 NW13G23   29.67F
LLOYDMINSTER   PTSUNNY   64  46  52 NW16G23   29.63
PRINCE ALBERT  CLOUDY    64  57  77 SW13      29.57F
REGINA         CLOUDY    68  57  68 S16G22    29.68F



USA.gov is the U.S. government's official web portal to all federal, state and local government web resources and services.